Home > Weather > Kilgore > Past weeks

Flag for USA Past Weather in Kilgore, Texas, USA — Yesterday and Last 2 Weeks

Now
71 °F

Clear.


Feels Like: 64 °F
Forecast: 73 / 90 °F
Wind: 3 mph from North

Location: Gregg County Airport

Current Time: Aug 28, 2016 at 2:19:29 AM

Latest Report: Aug 28, 2016 at 1:53 AM


Visibility: 10 mi

Pressure: 29.98 "Hg

Humidity: 100%

Dew Point: 71 °F

Location of KilgoreLocation

Past Weather in Kilgore — Graph

°F

Kilgore Temperature Yesterday

Maximum temperature yesterday: 91 °F (at 3:53 PM)
Minimum temperature yesterday: 73 °F (at 12:53 AM)
Average temperature yesterday: 80 °F

High & Low Weather Summary for the Past Weeks

 TemperatureHumidityPressure
High91 °F (Aug 23, 3:53 PM)100% (Aug 13, 10:53 PM)30.18 "Hg (Aug 13, 10:53 PM)
Low71 °F (Aug 23, 3:53 AM)52% (Aug 25, 5:53 PM)29.74 "Hg (Aug 13, 5:53 PM)
Average78 °F89%29.99 "Hg
* Reported Aug 13 12:53 AM — Aug 28 12:53 AM, Kilgore, Weather by CustomWeather, © 2016

Note: Actual official high and low records may vary slightly from our data, if they occured in-between our weather recording intervals... More about our weather records

Advertising

Kilgore Weather History for the Previous 24 Hours

Scroll right to see more
 ConditionsComfort  
Time TempWeatherWind HumidityBarometerVisibility
12:53 AM
Sun, Aug 28
73 °FClear.3 mph94%29.99 "Hg10 mi
11:53 PM
Sat, Aug 27
73 °FClear.5 mph94%30.00 "Hg10 mi
10:53 PM75 °FClear.8 mph90%30.00 "Hg10 mi
9:53 PM76 °FPassing clouds.8 mph88%29.99 "Hg10 mi
8:53 PM77 °FThunderstorms. Clear.10 mph85%29.98 "Hg10 mi
7:53 PM79 °FThunderstorms. Scattered clouds.16 mph82%29.96 "Hg10 mi
6:53 PM86 °FScattered clouds.6 mph63%29.92 "Hg10 mi
5:53 PM89 °FPassing clouds.8 mph55%29.90 "Hg10 mi
4:53 PM90 °FPassing clouds.8 mph52%29.90 "Hg10 mi
3:53 PM91 °FScattered clouds.6 mph54%29.91 "Hg10 mi
2:53 PM87 °FScattered clouds.6 mph61%29.93 "Hg10 mi
1:53 PM88 °FScattered clouds.6 mph61%29.96 "Hg10 mi
12:53 PM86 °FScattered clouds.No wind63%29.98 "Hg10 mi
11:53 AM84 °FScattered clouds.No wind74%30.01 "Hg10 mi
10:53 AM83 °FScattered clouds.5 mph79%30.02 "Hg10 mi
9:53 AM81 °FScattered clouds.No wind82%30.02 "Hg7 mi
8:53 AM78 °FFog.No wind90%30.01 "Hg4 mi
7:53 AM75 °FFog.3 mph100%30.00 "Hg1 mi
6:53 AM73 °FPassing clouds.3 mph100%29.99 "Hg10 mi
5:53 AM73 °FPassing clouds.No wind100%29.98 "Hg10 mi
4:53 AM73 °FPassing clouds.3 mph100%29.97 "Hg10 mi
3:53 AM73 °FPassing clouds.3 mph100%29.97 "Hg10 mi
2:53 AM74 °FClear.No wind100%29.95 "Hg10 mi
Weather by CustomWeather, © 2016

See weather overviewHow to use our weather pages